Regional Weather Roundup
Issued by NWS

Home | Current Version | Previous Version | Text Only | Print | Product List | Glossary Off
Versions: 1 2 3 4 5 6 7 8 9 10 11 12 13 14 15 16 17 18 19 20 21 22 23 24 25 26 27 28 29 30 31 32 33 34 35 36 37 38 39 40 41 42 43 44 45 46 47 48 49 50

000
ASUS45 KBOU 101707
RWRCO

WEATHER ROUNDUP FOR COLORADO
NATIONAL WEATHER SERVICE DENVER/BOULDER CO
1000 AM MST WED FEB 10 2016

NOTE: "FAIR" INDICATES FEW OR NO CLOUDS BELOW 12000 FEET WITH NO
SIGNIFICANT WEATHER AND/OR OBSTRUCTIONS TO VISIBILITY.

COZ001>005-013-030-031-101800-
...NORTHWEST COLORADO...

CITY           SKY/WX    TMP DP  RH WIND       PRES   REMARKS
CRAIG          CLOUDY    11   9  92 W3        30.44S
HAYDEN         CLOUDY    23  12  63 E12       30.42S WCI  12
MEEKER         CLOUDY    20  12  71 CALM      30.43F
MOUNT WERNER   NOT AVBL
STEAMBOAT SPGS CLOUDY    15  12  88 CALM      30.43F
WALDEN         CLOUDY    27  12  54 SE5       30.40S WCI  21
$$

COZ006>008-011-101800-
...WEST CENTRAL VALLEYS...

CITY           SKY/WX    TMP DP  RH WIND       PRES   REMARKS
GRAND JUNCTION CLOUDY    31  22  69 CALM      30.49S
MONTROSE       CLOUDY    33  15  47 CALM      30.49F
EAGLE          MOSUNNY   16  10  79 CALM      30.55F
RIFLE          CLOUDY    24  16  71 CALM      30.50S
DELTA          CLOUDY    34  22  60 E3        30.49F
NUCLA          CLOUDY    30  19  64 CALM      30.52S
$$

COZ017>023-064>068-101800-
...SOUTHWEST COLORADO...

CITY           SKY/WX    TMP DP  RH WIND       PRES   REMARKS
DURANGO        CLOUDY    24  12  60 NE6       30.46S WCI  17
CORTEZ         CLOUDY    33  17  51 CALM      30.48S
PAGOSA SPRINGS CLOUDY    35   6  29 CALM      30.48S
TELLURIDE      CLOUDY    36   8  30 SE3       30.53S
WOLF CREEK PAS CLOUDY    34  -4  19 SW10      30.61R WCI  26
$$

COZ009-010-012-014-032>034-037-058>063-101800-
...CENTRAL COLORADO...

CITY           SKY/WX    TMP DP  RH WIND       PRES   REMARKS
ASPEN          CLOUDY    31  13  47 CALM      30.45F
BUENA VISTA    CLOUDY    34  14  44 SE3       30.42S
COPPER MTN     CLOUDY    34  -2  21 W15       30.51S WCI  24
BERTHOUD PASS  FAIR      25  14  63 NW31G48   30.46R WCI   8
COTTONWOOD PAS CLOUDY    45 -18   6 W18G28    30.45S
GUNNISON       CLOUDY    -8 -22  49 CALM      30.64S
KREMMLING      FOG      N/A N/A N/A CALM      30.55F VSB 1/2
LEADVILLE      CLOUDY    37   0  21 NW7       30.46S
MONARCH PASS   CLOUDY    28   0  29 W33       30.62R WCI  12
SALIDA         NOT AVBL
SUNLIGHT       CLOUDY    34   9  35 CALM        N/A
WILKERSON PASS CLOUDY    34  -4  19 W8G25     30.48R WCI  27
$$

COZ069>075-101800-
...SAN LUIS VALLEY/SANGRE DE CRISTO MOUNTAINS...

CITY           SKY/WX    TMP DP  RH WIND       PRES   REMARKS
ALAMOSA        CLOUDY    31  19  61 NE3       30.48R
LA VETA PASS   CLOUDY    37   5  25 S10G24    30.46S
SAGUACHE       CLOUDY    34  12  40 W5        30.49R WCI  30
$$

COZ035-036-038>040-101800-
...NORTHERN COLORADO FRONT RANGE...

CITY           SKY/WX    TMP DP  RH WIND       PRES   REMARKS
DENVER INTL AP MOSUNNY   57  18  21 W13       30.17F
DMNS CITY PARK   N/A     61   8  12 SW8G14    30.19S
AURORA         NOT AVBL
FRONT RANGE AP MOSUNNY   54  19  26 MISG      30.18F
ERIE MUNI ARPT CLOUDY    61   9  13 SW8       30.17S
BOULDER MUN AP CLOUDY    61  10  13 W3        30.16F
CENTENNIAL     MOSUNNY   52  14  22 SW12      30.21S
BROOMFIELD     MOSUNNY   59  10  14 SW13G29   30.20F
FORT COLLINS   CLOUDY    54  19  26 SW12      30.15S
LONGMONT       CLOUDY    58  17  20 CALM      30.17S
$$

COZ041-046-047-076>085-087-088-101800-
...PIKES PEAK/PALMER DIVIDE AND SOUTHERN FOOTHILLS...

CITY           SKY/WX    TMP DP  RH WIND       PRES   REMARKS
COLO. SPRINGS  MOSUNNY   59   4  11 NW12      30.25R
A. F. ACADEMY  NOT AVBL
SCHRIEVER AFB  NOT AVBL
ELLICOTT       SUNNY    N/A N/A N/A N9        30.22R
FALCON         NOT AVBL
FORT CARSON    NOT AVBL
LIMON          SUNNY     42  23  46 W12       30.18S
MONUMENT HILL  CLOUDY    43  19  39 W6        30.29R
TRINIDAD       SUNNY     62   5  10 W16       30.25S
$$

COZ042>045-048>051-090-091-101800-
...NORTHEAST COLORADO...

CITY           SKY/WX    TMP DP  RH WIND       PRES   REMARKS
GREELEY ARPT   SUNNY     41  27  56 CALM      30.15S
AKRON          SUNNY     43  24  47 W18       30.10R
BURLINGTON     SUNNY     46  25  43 W16       30.10S
WRAY           SUNNY     48  24  39 W9        30.07S
STERLING       SUNNY     50  30  46 W12       30.05F
HOLYOKE        SUNNY     43  30  61 W13       30.05S
FORT MORGAN    SUNNY     43  24  46 W14       30.12S
$$

COZ086-089-092>099-101800-
...SOUTHEAST COLORADO...

CITY           SKY/WX    TMP DP  RH WIND       PRES   REMARKS
PUEBLO         SUNNY     61  13  15 W21G26    30.19R
LA JUNTA       SUNNY     55  19  24 W20G26    30.17S
LAMAR          SUNNY     53  24  32 W14G22    30.14S
SPRINGFIELD      N/A     66  11  11 W20G26    30.16S
$$



USA.gov is the U.S. government's official web portal to all federal, state and local government web resources and services.